Location: Unspecified
(45.3151°N, 0.0000°E)
Time: 05:02:43
(UTC+00:00)

Meteor 1-15 - Visible Passes

Search period start: 04 April 2026 00:00
Search period end: 14 April 2026 00:00
Orbit: 838 x 877 km, 81.2° (Epoch: 29 March)

Date Brightness Start Highest point End Pass type
(mag) Time Alt. Az. Time Alt. Az. Time Alt. Az.
4 Apr 6.7 20:28:56 10° NNW 20:34:05 35° W 20:39:10 10° SSW visible
5 Apr 6.7 20:18:55 10° NNW 20:24:07 37° W 20:29:16 10° SSW visible
6 Apr 6.7 20:08:55 10° NNW 20:14:09 38° W 20:19:21 10° SSW visible
7 Apr 6.6 19:58:54 10° NNW 20:04:11 40° W 20:09:26 10° SSW visible
8 Apr 6.6 19:48:54 10° NNW 19:54:14 41° W 19:59:30 10° SSW visible
9 Apr 6.5 19:38:54 10° NNW 19:44:16 43° W 19:49:34 10° SSW visible
10 Apr 6.5 19:28:54 10° NNW 19:34:19 45° W 19:39:38 10° SSW visible
11 Apr 6.4 19:18:54 10° NNW 19:24:21 47° W 19:29:42 10° SSW visible
12 Apr 6.4 19:08:54 10° NNW 19:14:22 48° W 19:19:46 10° SSW visible
